TimePST,TemperatureF,Dew PointF,Humidity,Sea Level PressureIn,VisibilityMPH,Wind Direction,Wind SpeedMPH,Gust SpeedMPH,PrecipitationIn,Events,Conditions,WindDirDegrees,DateUTC
12:56 AM,53.1,24.1,32,29.88,10.0,Calm,Calm,-,N/A,,Clear,0,2012-12-08 08:56:00
1:56 AM,54.0,24.1,31,29.88,10.0,SSW,4.6,-,N/A,,Clear,210,2012-12-08 09:56:00
2:56 AM,53.1,25.0,34,29.88,10.0,South,6.9,-,N/A,,Clear,180,2012-12-08 10:56:00
3:56 AM,48.9,24.1,38,29.89,10.0,Calm,Calm,-,N/A,,Clear,0,2012-12-08 11:56:00
4:56 AM,46.9,23.0,39,29.90,10.0,SW,5.8,-,N/A,,Clear,220,2012-12-08 12:56:00
5:56 AM,46.0,23.0,40,29.91,10.0,WSW,4.6,-,N/A,,Clear,240,2012-12-08 13:56:00
6:56 AM,48.0,24.1,39,29.92,10.0,South,5.8,-,N/A,,Clear,190,2012-12-08 14:56:00
7:56 AM,52.0,25.0,35,29.94,10.0,SSE,3.5,-,N/A,,Clear,160,2012-12-08 15:56:00
8:56 AM,55.0,25.0,31,29.94,10.0,South,3.5,-,N/A,,Clear,170,2012-12-08 16:56:00
9:56 AM,60.1,25.0,26,29.94,10.0,SE,4.6,-,N/A,,Clear,140,2012-12-08 17:56:00
10:56 AM,64.0,25.0,23,29.91,10.0,Calm,Calm,-,N/A,,Clear,0,2012-12-08 18:56:00
11:56 AM,66.9,25.0,21,29.88,10.0,Variable,3.5,-,N/A,,Clear,0,2012-12-08 19:56:00
12:56 PM,69.1,26.1,20,29.86,10.0,Calm,Calm,-,N/A,,Clear,0,2012-12-08 20:56:00
1:56 PM,71.1,27.0,19,29.83,10.0,ENE,4.6,-,N/A,,Clear,60,2012-12-08 21:56:00
2:56 PM,71.1,26.1,19,29.83,10.0,ESE,3.5,-,N/A,,Clear,110,2012-12-08 22:56:00
3:56 PM,70.0,25.0,18,29.83,10.0,Calm,Calm,-,N/A,,Clear,0,2012-12-08 23:56:00
4:56 PM,64.0,28.0,26,29.84,10.0,North,4.6,-,N/A,,Clear,360,2012-12-09 00:56:00
6:56 PM,57.0,24.1,28,29.87,10.0,West,5.8,-,N/A,,Clear,270,2012-12-09 02:56:00
7:56 PM,57.9,21.0,24,29.87,10.0,WSW,9.2,-,N/A,,Clear,250,2012-12-09 03:56:00
8:56 PM,55.9,19.9,25,29.88,10.0,WSW,5.8,-,N/A,,Clear,250,2012-12-09 04:56:00
9:56 PM,53.1,21.0,29,29.89,10.0,NW,3.5,-,N/A,,Clear,320,2012-12-09 05:56:00
11:56 PM,48.9,21.0,33,29.89,10.0,WNW,5.8,-,N/A,,Clear,300,2012-12-09 07:56:00